Cumshewa Island, British Columbia

5:49 PM PDT on April 22, 2018 (GMT -0700)
Cumshewa Island

Weather History for CWZL - January, 2013

Change the Weather History Date:

Thursday, January 17, 2013

  Actual Average (CYZP) Record (CYZP)
Temperature  
Mean Temperature 46 °F -  
Max Temperature 47 °F 40 °F 51 °F (2001)
Min Temperature 45 °F 34 °F 10 °F (2012)
Degree Days  
Heating Degree Days 19    
Moisture  
Dew Point 42 °F    
Average Humidity 84    
Maximum Humidity 90    
Minimum Humidity 75    
Precipitation  
Precipitation 0.00 in - - ()
Sea Level Pressure  
Sea Level Pressure 30.05 in    
Wind  
Wind Speed 18 mph ()    
Max Wind Speed 33 mph    
Max Gust Speed -    
Averages and records for this station are not official NWS values.
T = Trace of Precipitation, MM = Missing Value Source: Averaged Metar Reports

Daily Weather History Graph

Daily Weather History Graph

Search for Another Location

Airport or City:

Astronomy

Jan. 17, 2013 Rise Set
Actual Time 8:49 AM PST 5:04 PM PST
Civil Twilight 8:09 AM PST 5:44 PM PST
Nautical Twilight 7:26 AM PST 6:27 PM PST
Astronomical Twilight 6:45 AM PST 7:08 PM PST
Moon 10:58 AM PST (1/17) No Moon Set
Length of Visible Light 9h 34m
Length of Day
8h 14m
Waxing Crescent, 39% of the Moon is Illuminated
Jan 17
Waxing Crescent
Jan 18
First Quarter
Jan 26
Full
Feb 3
Last Quarter
Feb 9
New

Hourly Weather History & Observations

Time (PST) Temp. Windchill Dew Point Humidity Pressure Visibility Wind Dir Wind Speed Gust Speed Precip Events Conditions
12:00 AM 47.1 °F - 41.4 °F 80% 30.20 in - South 19.6 mph - N/A   Unknown
1:00 AM 46.8 °F - 41.0 °F 80% 30.17 in - South 21.9 mph - N/A   Unknown
3:00 AM 45.9 °F 36.8 °F 40.6 °F 82% 30.10 in - South 27.6 mph - N/A   Unknown
4:00 AM 46 °F - 41 °F 75% 30.07 in - South 33.4 mph - -  
4:00 AM 45.5 °F 35.5 °F 40.6 °F 83% 30.07 in - South 33.4 mph - N/A   Unknown
5:00 AM 45.9 °F 36.3 °F 39.9 °F 80% 30.05 in - South 31.1 mph - N/A   Unknown
6:00 AM 46.0 °F 36.4 °F 39.9 °F 79% 29.97 in - South 32.2 mph - N/A   Unknown
7:00 AM 45.7 °F 36.9 °F 41.0 °F 84% 30.00 in - South 25.3 mph - N/A   Unknown
8:00 AM 45.9 °F 37.0 °F 41.5 °F 85% 29.99 in - South 26.5 mph - N/A   Unknown
9:00 AM 45.9 °F 37.8 °F 41.7 °F 85% 30.00 in - SSE 21.9 mph - N/A   Unknown
10:00 AM 46 °F - 43 °F 85% 30.01 in - South 21.9 mph - -  
10:00 AM 46.2 °F 38.3 °F 43.0 °F 88% 30.01 in - South 21.9 mph - N/A   Unknown
11:00 AM 46.4 °F 38.5 °F 43.3 °F 89% 30.04 in - South 21.9 mph - N/A   Unknown
12:00 PM 46.6 °F - 43.2 °F 88% 30.05 in - South 19.6 mph - N/A   Unknown
1:00 PM 46.2 °F 38.7 °F 43.0 °F 88% 30.04 in - South 19.6 mph - N/A   Unknown
2:00 PM 46.0 °F 38.5 °F 43.0 °F 89% 30.03 in - South 19.6 mph - N/A   Unknown
3:00 PM 46.4 °F 39.8 °F 42.6 °F 87% 30.03 in - South 16.1 mph - N/A   Unknown
4:00 PM 47 °F - 42 °F 76% 30.03 in - South 10.4 mph - -  
4:00 PM 47.3 °F - 41.9 °F 82% 30.03 in - South 10.4 mph - N/A   Unknown
5:00 PM 46.4 °F 41.1 °F 42.1 °F 85% 30.03 in - South 11.5 mph - N/A   Unknown
6:00 PM 46.8 °F - 41.4 °F 81% 30.02 in - SSW 9.2 mph - N/A   Unknown
7:00 PM 46.8 °F - 41.7 °F 83% 30.02 in - SSW 6.9 mph - N/A   Unknown
8:00 PM 46.4 °F 43.5 °F 41.5 °F 83% 30.04 in - SSW 5.8 mph - N/A   Unknown
9:00 PM 46.2 °F 43.3 °F 41.4 °F 83% 30.05 in - SSW 5.8 mph - N/A   Unknown
10:00 PM 45 °F - 41 °F 81% 30.06 in - SW 3.5 mph - -  
10:00 PM 45.3 °F 44.0 °F 41.0 °F 85% 30.06 in - SW 3.5 mph - N/A   Unknown
11:00 PM 45.0 °F 43.5 °F 42.1 °F 90% 30.07 in - SSW 3.5 mph - N/A   Unknown